Weather History for Melville Hall, Dominica

Change the Weather History Date:

Wednesday, September 4, 2013

  Actual Average Record
Temperature  
Mean Temperature 81 °F -  
Max Temperature 89 °F 85 °F 89 °F (1998)
Min Temperature 73 °F 75 °F 73 °F (1996)
Cooling Degree Days 16    
Growing Degree Days 31 (Base 50)    
Moisture  
Dew Point 76 °F    
Average Humidity 85    
Maximum Humidity 100    
Minimum Humidity 68    
Precipitation  
Precipitation 1.97 in 0.40 in - ()
Sea Level Pressure  
Sea Level Pressure 29.91 in    
Wind  
Wind Speed 4 mph ()    
Max Wind Speed 9 mph    
Max Gust Speed -    
Visibility 8.1 miles    
Events Rain , Thunderstorm    
Averages and records for this station are not official NWS values.
T = Trace of Precipitation, MM = Missing Value Source: Averaged Metar Reports

Daily Weather History Graph

Daily Weather History Graph

Search for Another Location

Airport:

Trip Planner

Search our weather history database for the weather conditions in past years. The results will help you decide how hot, cold, wet, or windy it might be!

Date:

Astronomy

Sep. 04, 2013 Rise Set
Actual Time 5:52 AM AST 6:15 PM AST
Civil Twilight 5:31 AM AST 6:36 PM AST
Nautical Twilight 5:05 AM AST 7:02 PM AST
Astronomical Twilight 4:40 AM AST 7:27 PM AST
Moon 5:00 AM AST (9/4) 5:36 PM AST (9/4)
Length of Visible Light 13h 05m
Length of Day
12h 22m
Waning Crescent, 1% of the Moon is Illuminated
Sep 4
Waning Crescent
Sep 5
New
Sep 12
First Quarter
Sep 19
Full
Sep 26
Last Quarter

Hourly Weather History & Observations

Time (AST) Temp. Heat Index Dew Point Humidity Pressure Visibility Wind Dir Wind Speed Gust Speed Precip Events Conditions
12:00 AM 73.4 °F - 73.4 °F 100% 29.89 in 6.2 mi West 3.5 mph - N/A   Scattered Clouds
1:00 AM 73.4 °F - 73.4 °F 100% 29.86 in 6.2 mi West 3.5 mph - N/A   Mostly Cloudy
2:00 AM 74 °F - 73 °F 96% 29.86 in 16 mi West 4.6 mph - -   Mostly Cloudy
2:00 AM 73.4 °F - 73.4 °F 100% 29.86 in 6.2 mi West 4.6 mph - N/A   Mostly Cloudy
6:00 AM 75.2 °F - 73.4 °F 94% 29.89 in 6.2 mi West 3.5 mph - N/A   Mostly Cloudy
7:00 AM 77.0 °F - 75.2 °F 94% 29.89 in 6.2 mi West 2.3 mph - N/A   Mostly Cloudy
8:00 AM 80 °F - 77 °F 89% 29.93 in 17 mi South 2.3 mph - -  
8:00 AM 80.6 °F 87.1 °F 77.0 °F 89% 29.92 in 6.2 mi South 2.3 mph - N/A   Mostly Cloudy
9:00 AM 84.2 °F 94.1 °F 77.0 °F 79% 29.92 in 6.2 mi SE 4.6 mph - N/A   Mostly Cloudy
10:00 AM 87.8 °F 99.7 °F 77.0 °F 70% 29.92 in 6.2 mi South 4.6 mph - N/A   Mostly Cloudy
11:00 AM 88 °F - 79 °F 68% 29.93 in 17 mi SE 8.1 mph - -   Partly Cloudy
11:00 AM 87.8 °F 102.5 °F 78.8 °F 75% 29.92 in 6.2 mi SE 8.1 mph - N/A   Mostly Cloudy
12:00 PM 86.0 °F 99.3 °F 78.8 °F 79% 29.95 in 6.2 mi SSE 3.5 mph - N/A Rain Light Rain
1:00 PM 89.6 °F 108.2 °F 80.6 °F 75% 29.92 in 6.2 mi SSE 9.2 mph - N/A   Mostly Cloudy
2:00 PM 86 °F - 77 °F 69% 29.90 in 17 mi SSE 6.9 mph - -   Partly Cloudy
2:00 PM 86.0 °F 96.9 °F 77.0 °F 74% 29.89 in 6.2 mi SSE 6.9 mph - N/A   Mostly Cloudy
3:00 PM 86.0 °F 99.3 °F 78.8 °F 79% 29.89 in 6.2 mi SE 8.1 mph - N/A   Mostly Cloudy
4:00 PM 84.2 °F 92.3 °F 75.2 °F 74% 29.89 in 6.2 mi South 4.6 mph - N/A   Mostly Cloudy
5:00 PM 83 °F - 78 °F 79% 29.89 in 17 mi South 3.5 mph - -   Partly Cloudy
5:00 PM 84.2 °F 94.1 °F 77.0 °F 79% 29.89 in 6.2 mi South 3.5 mph - N/A   Mostly Cloudy
6:00 PM 80.6 °F 87.1 °F 77.0 °F 89% 29.89 in 6.2 mi South 3.5 mph - N/A Rain Light Rain Showers
7:00 PM 78.8 °F - 77.0 °F 94% 29.92 in 1.9 mi West 6.9 mph - N/A Rain Rain Showers
8:00 PM 75 °F - 72 °F 87% 29.95 in 5 mi SW 3.5 mph - - Thunderstorm Thunderstorm
8:00 PM 75.2 °F - 71.6 °F 89% 29.95 in 5.0 mi SW 3.5 mph - N/A Thunderstorm Thunderstorm
9:00 PM 75.2 °F - 73.4 °F 94% 29.95 in 6.2 mi West 4.6 mph - N/A   Mostly Cloudy